This demonstration page uses our WeatherBlox Daily Observations layout. Learn more.

Left ArrowRight Arrow

41.12389, -100.76542

Hourly Observations for November 4, 2016

Temp ( °F °C ) Dew Point ( °F °C ) Humidity (%) Winds ( mph kmh ) Pressure ( in mb ) Visibility ( mi km ) Precip ( " mm )
12:53 am 00:53 Clear 35 1.7 31 -0.6 85 85 Calm 30.40 1029 10 16 0.00 0.00
1:53 am 01:53 Clear 34 1.1 30 -1.1 85 85 Calm 30.40 1029 10 16 0.00 0.00
2:53 am 02:53 Clear 34 1.1 30 -1.1 85 85 Calm 30.40 1029 10 16 0.00 0.00
3:53 am 03:53 Clear 31 -0.6 29 -1.7 92 92 NNW 3 6 30.41 1030 10 16 0.00 0.00
4:53 am 04:53 Clear 31 -0.6 28 -2.2 89 89 NNW 5 7 30.40 1030 10 16 0.00 0.00
5:53 am 05:53 Clear 31 -0.6 27 -2.8 85 85 NW 3 6 30.41 1030 10 16 0.00 0.00
6:53 am 06:53 Clear 31 -0.6 29 -1.7 92 92 NW 5 7 30.44 1031 10 16 0.00 0.00
7:53 am 07:53 Clear 32 0 28 -2.2 85 85 Calm 30.45 1031 10 16 0.00 0.00
8:53 am 08:53 Sunny 33 0.6 29 -1.7 85 85 WNW 3 6 30.47 1032 10 16 0.00 0.00
9:53 am 09:53 Sunny 41 5 33 0.6 73 73 W 5 7 30.46 1031 10 16 0.00 0.00
10:53 am 10:53 Sunny 49 9.4 35 1.7 59 59 W 5 7 30.45 1031 10 16 0.00 0.00
11:53 am 11:53 Sunny 58 14.4 35 1.7 42 42 Calm 30.43 1030 10 16 0.00 0.00
12:53 pm 12:53 Sunny 65 18.3 37 2.8 36 36 VRB 3 6 30.39 1029 10 16 0.00 0.00
1:53 pm 13:53 Sunny 69 20.6 38 3.3 32 32 VRB 3 6 30.35 1028 10 16 0.00 0.00
2:53 pm 14:53 Sunny 71 21.7 37 2.8 29 29 Calm 30.32 1027 10 16 0.00 0.00
3:53 pm 15:53 Sunny 74 23.3 39 3.9 28 28 Calm 30.29 1026 10 16 0.00 0.00
4:53 pm 16:53 Sunny 75 23.9 38 3.3 26 26 ESE 3 6 30.28 1025 10 16 0.00 0.00
5:53 pm 17:53 Sunny 70 21.1 38 3.3 31 31 Calm 30.28 1025 10 16 0.00 0.00
6:53 pm 18:53 Clear 62 16.7 36 2.2 38 38 SSE 5 7 30.29 1026 10 16 0.00 0.00
7:53 pm 19:53 Clear 53 11.7 37 2.8 55 55 Calm 30.31 1026 10 16 0.00 0.00
8:53 pm 20:53 Clear 52 11.1 36 2.2 55 55 Calm 30.31 1026 10 16 0.00 0.00
9:53 pm 21:53 Clear 50 10 36 2.2 59 59 SSE 3 6 30.30 1026 10 16 0.00 0.00
10:53 pm 22:53 Clear 46 7.8 35 1.7 66 66 SE 3 6 30.30 1026 10 16 0.00 0.00
11:53 pm 23:53 Clear 52 11.1 36 2.2 55 55 S 7 11 30.27 1025 10 16 0.00 0.00

Powered by AerisWeather